Weather History for Defiance, OH

Change the Weather History Date:

Sunday, March 23, 2014

  Actual Average Record
Temperature  
Mean Temperature 26 °F -  
Max Temperature 32 °F 47 °F 72 °F (1939)
Min Temperature 21 °F 27 °F 12 °F (1940)
Degree Days  
Heating Degree Days 38    
Moisture  
Dew Point 12 °F    
Average Humidity 55    
Maximum Humidity 66    
Minimum Humidity 46    
Precipitation  
Precipitation 0.00 in - - ()
Sea Level Pressure  
Sea Level Pressure 30.35 in    
Wind  
Wind Speed 11 mph (NNW)    
Max Wind Speed 15 mph    
Max Gust Speed 22 mph    
Visibility 10 miles    
Events      
Averages and records for this station are not official NWS values.
T = Trace of Precipitation, MM = Missing Value Source: NWS Daily Summary

Daily Weather History Graph

Daily Weather History Graph

Search for Another Location

Airport:

Trip Planner

Search our weather history database for the weather conditions in past years. The results will help you decide how hot, cold, wet, or windy it might be!

Date:

Astronomy

Mar. 23, 2014 Rise Set
Actual Time 7:35 AM EDT 7:53 PM EDT
Civil Twilight 7:08 AM EDT 8:20 PM EDT
Nautical Twilight 6:36 AM EDT 8:53 PM EDT
Astronomical Twilight 6:02 AM EDT 9:26 PM EDT
Moon 2:12 AM EDT (3/23) 12:13 PM EDT (3/23)
Length of Visible Light 13h 12m
Length of Day
12h 17m
Waning Gibbous, 55% of the Moon is Illuminated
Mar 23
Waning Gibbous
Mar 23
Last Quarter
Mar 30
New
Apr 7
First Quarter
Apr 15
Full

Hourly Weather History & Observations

Time (EDT) Temp. Windchill Dew Point Humidity Pressure Visibility Wind Dir Wind Speed Gust Speed Precip Events Conditions
12:53 AM 32.0 °F 23.6 °F 21.0 °F 64% 30.25 in 10.0 mi NW 10.4 mph - N/A   Partly Cloudy
1:53 AM 30.9 °F 20.2 °F 19.9 °F 64% 30.26 in 10.0 mi NNW 15.0 mph - N/A   Clear
2:53 AM 28.9 °F 18.6 °F 15.1 °F 56% 30.28 in 10.0 mi North 12.7 mph 21.9 mph N/A   Clear
3:53 AM 27.0 °F 18.0 °F 12.9 °F 56% 30.29 in 10.0 mi North 9.2 mph - N/A   Clear
4:53 AM 26.1 °F 16.2 °F 12.9 °F 58% 30.30 in 10.0 mi NNE 10.4 mph - N/A   Clear
5:53 AM 25.0 °F 13.6 °F 12.0 °F 58% 30.32 in 10.0 mi North 12.7 mph - N/A   Mostly Cloudy
6:53 AM 24.1 °F 12.5 °F 10.9 °F 57% 30.35 in 10.0 mi North 12.7 mph - N/A   Scattered Clouds
7:53 AM 21.9 °F 11.7 °F 9.0 °F 58% 30.37 in 10.0 mi NNE 9.2 mph - N/A   Scattered Clouds
8:53 AM 23.0 °F 11.7 °F 10.9 °F 60% 30.38 in 10.0 mi NNE 11.5 mph - N/A   Overcast
9:53 AM 24.1 °F 12.5 °F 10.0 °F 55% 30.39 in 10.0 mi North 12.7 mph - N/A   Clear
10:53 AM 25.0 °F 13.1 °F 9.0 °F 51% 30.40 in 10.0 mi NNW 13.8 mph 19.6 mph N/A   Clear
11:53 AM 26.1 °F 14.5 °F 10.0 °F 51% 30.41 in 10.0 mi North 13.8 mph - N/A   Clear
12:53 PM 28.9 °F 19.8 °F 14.0 °F 54% 30.39 in 10.0 mi NNW 10.4 mph - N/A   Partly Cloudy
1:53 PM 28.9 °F 19.8 °F 12.9 °F 51% 30.38 in 10.0 mi NW 10.4 mph 19.6 mph N/A   Scattered Clouds
2:53 PM 28.9 °F 19.8 °F 10.9 °F 47% 30.36 in 10.0 mi WNW 10.4 mph 17.3 mph N/A   Mostly Cloudy
3:53 PM 30.9 °F 21.2 °F 12.0 °F 46% 30.35 in 10.0 mi North 12.7 mph - N/A   Mostly Cloudy
4:53 PM 28.9 °F 17.7 °F 10.9 °F 47% 30.34 in 10.0 mi NNW 15.0 mph - N/A   Mostly Cloudy
5:53 PM 30.9 °F 21.2 °F 12.9 °F 47% 30.34 in 10.0 mi North 12.7 mph - N/A   Overcast
6:53 PM 28.9 °F 20.4 °F 10.9 °F 47% 30.35 in 10.0 mi NNW 9.2 mph - N/A   Mostly Cloudy
7:53 PM 27.0 °F 17.3 °F 10.0 °F 49% 30.36 in 10.0 mi NW 10.4 mph - N/A   Partly Cloudy
8:53 PM 26.1 °F 16.8 °F 10.9 °F 53% 30.38 in 10.0 mi NW 9.2 mph - N/A   Scattered Clouds
9:53 PM 24.1 °F 16.0 °F 12.0 °F 60% 30.38 in 10.0 mi NW 6.9 mph - N/A   Clear
10:53 PM 23.0 °F 14.7 °F 12.0 °F 63% 30.39 in 10.0 mi NW 6.9 mph - N/A   Clear
11:53 PM 21.9 °F 13.4 °F 12.0 °F 66% 30.39 in 10.0 mi NW 6.9 mph - N/A   Clear